Weather in Runivshchyna

Ukraine / Poltava Region     49°41′50″N   34°45′11″E
temp.,
°C
wind,
m/s
gust,
m/s
humid.,
%
clouds,
%
prec.,
mm/h
press.,
hPa
HPBL,
m
7 may, fri
fri700:00+9nnw129398 1.8 1013167
03:00+6wnw22925 1.8 101429
06:00+6wsw11945 0.0 101519
09:00+12ssw22720 0.0 1016498
12:00+16sw334155 0.0 10151673
15:00+17sw453892 0.0 10152230
18:00+16s4749100 0.0 1013661
21:00+13se51262100 0.0 1013285
8 may, sat
sat800:00+14sse71652100 0.0 1011688
03:00+12s71585100 1.2 1009719
06:00+12s71685100 0.0 1008739
09:00+12ssw61290100 0.7 1008898
12:00+11wnw61092100 3.3 1009627
15:00+12wnw8977100 5.0 1011958
18:00+11w4869100 0.1 10121109
21:00+8wnw61074100 0.1 1015648
9 may, sun
sun900:00+6nw61482100 0.0 1016771
03:00+5nw4118087 0.0 1019359
06:00+5nnw61477100 0.0 1019682
09:00+9nnw7116199 0.0 10211156
12:00+12nnw710475 0.0 10222037
15:00+14nnw81042100 0.0 10222681
18:00+13nnw695111 0.0 10242151
21:00+7nnw410680 0.0 1026214
10 may, mon
mon1000:00+6nnw38743 0.0 1027154
03:00+4n36795 0.0 1028105
06:00+4n37783 0.0 1029154
09:00+11nne610530 0.0 10291329
12:00+14nne710435 0.0 10281709
15:00+15nne810425 0.0 10261685
18:00+14nne61054100 0.0 10261330
21:00+9nne410720 0.0 1029231
11 may, tue
tue1100:00+11nne61360100 0.0 1025615
03:00+11nne61363100 0.0 1024501
06:00+9nne614765 0.0 1024410
09:00+14ne710675 0.0 1023552
12:00+19ne710609 0.0 10221049
15:00+17ene91273100 0.8 10211248
18:00+15e697416 0.1 1022975
21:00+11e388057 0.1 1022268